Location: Göttingen
(51.5413°N, 9.9158°E)
Time: 12:05:20
(UTC+02:00)

EO-88 - Pass Details

Date: 04 July 2022
Orbit: 453 x 461 km, 97.3° (Epoch: 13 August)

Event Time Altitude Azimuth Distance (km) Brightness Sun altitude
Exits shadow 23:52:55 - 220° (SW) 2,174 ? -13.0°
Reaches altitude 10° 23:54:58 10° 243° (WSW) 1,627 ? -13.1°
Maximum altitude 23:56:37 13° 271° (W) 1,462 ? -13.2°
Drops below altitude 10° 23:58:17 10° 300° (WNW) 1,632 ? -13.3°
Sets 00:01:20 0° 329° (NNW) 2,514 ? -13.4°
